Retour au catalogue

DELTA 1 DEB

ActifUNKNOWN
NORAD 27727·DEBRIS·🇺🇸 United States

Lancé Jul 29, 1976 depuis Vandenberg Space Force Base

Loading…

Prochains Passages (prochaines 24 heures)

TLE

FraisSource: Space-Track

Époque: Sep 14, 2026, 03:53 UTC

1 27727U 76077FS  26257.16218292  .00000013  00000-0  76183-3 0  9997
2 27727 102.7111 338.4032 0412629  22.0406   6.9077 11.68387849521979

Suivez DELTA 1 DEB en temps réel avec AllMySat

Download on the App Store